Location: Krakow
(50.0830°N, 19.9170°E)
Time: 04:14:36
(UTC+02:00)

Tiros 1 - Pass Details

Date: 10 February 2023
Orbit: 627 x 662 km, 48.4° (Epoch: 25 March)

Event Time Altitude Azimuth Distance (km) Brightness Sun altitude
Rises 23:52:17 0° 264° (W) 2,909 - -54.1°
Reaches altitude 10° 23:54:35 10° 263° (W) 2,003 - -54.1°
Maximum altitude 23:59:10 73° 180° (S) 660 - -54.1°
Drops below altitude 10° 00:03:48 10° 95° (E) 2,015 - -54.1°
Sets 00:06:08 0° 94° (E) 2,928 - -54.0°
